カタログに戻る

STARLINK-32694

運用中通信VLEO
NORAD 62494·PAYLOAD·🇺🇸 United States

打ち上げ Jan 6, 2025 から Cape Canaveral Space Force Station

Loading…

次のパス (今後24時間)

TLE

最新Source: CelesTrak SupGP

元期: Sep 14, 2026, 20:47 UTC

1 62494C 25003H   26257.86645833 -.00019813  00000+0 -71784-3 0  2570
2 62494  43.0034 300.3283 0001495 271.8747 203.5908 15.27578576    16

AllMySatでSTARLINK-32694をリアルタイム追跡

Download on the App Store